This is the latest recevied weather packets stored in our database for station/object WA1NHP. If no packets are shown the sender has not sent any weather packets the latest 10 day(s).
| Time | Temp. | Humidity | Pressure | Rain* | Wind** | Luminosity | Snow |
|---|---|---|---|---|---|---|---|
| 1777868044 | 2.78° C | 73% | 1023.9 hPa | 0 mm | - | 0 W/m² | - |
| 1777867444 | 2.22° C | 75% | 1023.9 hPa | 0 mm | - | 0 W/m² | - |
| 1777866844 | 2.22° C | 77% | 1023.9 hPa | 0 mm | - | 0 W/m² | - |
| 1777866243 | 1.67° C | 75% | 1023.9 hPa | 0 mm | - | 0 W/m² | - |
| 1777865643 | 1.11° C | 74% | 1023.9 hPa | 0 mm | - | 0 W/m² | - |
| 1777865044 | 1.67° C | 77% | 1023.9 hPa | 0 mm | - | 0 W/m² | - |
| 1777864444 | 1.67° C | 76% | 1023.9 hPa | 0 mm | - | 0 W/m² | - |
| 1777863844 | 1.67° C | 75% | 1023.9 hPa | 0 mm | - | 0 W/m² | - |
| 1777863244 | 1.67° C | 77% | 1023.9 hPa | 0 mm | - | 0 W/m² | - |
| 1777862644 | 1.67° C | 76% | 1023.9 hPa | 0 mm | - | 0 W/m² | - |
| 1777862043 | 1.67° C | 74% | 1023.9 hPa | 0 mm | - | 0 W/m² | - |
| 1777861444 | 1.67° C | 74% | 1023.9 hPa | 0 mm | - | 0 W/m² | - |
| 1777860844 | 1.67° C | 75% | 1023.9 hPa | 0 mm | - | 0 W/m² | - |
| 1777860244 | 1.67° C | 74% | 1023.9 hPa | 0 mm | - | 0 W/m² | - |
| 1777859644 | 1.67° C | 73% | 1023.9 hPa | 0 mm | - | 0 W/m² | - |
| 1777859044 | 1.67° C | 72% | 1023.9 hPa | 0 mm | - | 0 W/m² | - |
| 1777858444 | 2.22° C | 72% | 1023.9 hPa | 0 mm | - | 0 W/m² | - |
| 1777857843 | 2.22° C | 70% | 1023.9 hPa | 0 mm | - | 0 W/m² | - |
| 1777857243 | 2.22° C | 70% | 1023.9 hPa | 0 mm | - | 0 W/m² | - |
| 1777856645 | 2.78° C | 71% | 1023.9 hPa | 0 mm | - | 0 W/m² | - |
| 1777856044 | 3.33° C | 69% | 1023.9 hPa | 0 mm | - | 0 W/m² | - |
| 1777855444 | 3.33° C | 69% | 1023.9 hPa | 0 mm | - | 0 W/m² | - |
| 1777854844 | 3.89° C | 65% | 1023.9 hPa | 0 mm | - | 0 W/m² | - |
| 1777854244 | 4.44° C | 63% | 1023.9 hPa | 0 mm | - | 0 W/m² | - |
| 1777853644 | 5° C | 64% | 1023.9 hPa | 0 mm | - | 0 W/m² | - |
* Rain latest hour (hover to see other rain measurements)
** Current wind speed in m/s (hover to see current wind gust speed)